Regional Weather Roundup
Issued by NWS Wakefield, VA

Home | Current Version | Previous Version | Text Only | Print | Product List | Glossary On
Versions: 1 2 3 4 5 6 7 8 9 10 11 12 13 14 15 16 17 18 19 20 21 22 23 24 25 26 27 28 29 30 31 32 33 34 35 36 37 38 39 40 41 42 43 44 45 46 47 48 49 50
000
ASUS41 KAKQ 051015
RWRAKQ

REGIONAL WEATHER ROUNDUP
NATIONAL WEATHER SERVICE WAKEFIELD VA
600 AM EDT SUN JUL 05 2015

Note: "fair" indicates few or no clouds below 12,000 feet with no
significant weather and/or obstructions to visibility. * = Denotes
station may not report precipitation (e.g., rain,snow,etc.),
thunder or fog.

VAZ042-051-052>054-056-051100-
NORTHERN VIRGINIA

CITY           SKY/WX    TMP DP  RH WIND       PRES   REMARKS
WASH NATIONAL  MOCLDY    71  67  87 NE5       30.09R FOG
DULLES         FOG       66  66 100 NE3       30.09R VSB 1/2
FORT BELVOIR   FOG       68  66  94 CALM      30.09R VSB 3/4
QUANTICO       CLOUDY    70  67  90 NW6       30.09R FOG
FREDERICKSBRG* MOCLDY    72  72 100 CALM      30.07R FOG
STAFFORD*      FOG       66  65  97 CALM      30.12R VSB<1/4
WARRENTON      CLOUDY    67  67 100 CALM      30.09R FOG
CULPEPER*      FOG       66  66 100 CALM      30.10R VSB 1/4
MANASSAS*        N/A    N/A N/A N/A MISG        N/A
LEESBURG*      FOG       64  64 100 N3        30.11R VSB 1/4
WINCHESTER     CLOUDY    66  64  94 CALM      30.11R FOG
FRONT ROYAL*   CLOUDY    68  66  94 CALM      30.10R
LURAY*         CLOUDY    68  68 100 CALM      30.11R FOG
$$

VAZ048-049-060>072-079>083-051100-
CENTRAL AND SOUTH CENTRAL VIRGINIA

CITY           SKY/WX    TMP DP  RH WIND       PRES   REMARKS
RICHMOND       FOG       69  68  96 CALM      30.09R VSB 1/2
CHESTERFIELD*  NOT AVBL
PETERSBURG*    MOCLDY    71  71 100 CALM      30.08R
HANOVER        FOG       68  68 100 CALM      30.10R VSB 1/2
TAPPAHANNOCK*  CLOUDY    69  67  92 CALM      30.09R FOG
QUINTON*       NOT AVBL
CHARLOTTSVILLE MOCLDY    66  64  93 CALM      30.09R FOG
GORDONSVILLE*  FOG       66  66 100 NE5       30.08R VSB 1/2
ORANGE*        FOG       68  68 100 CALM      30.10R VSB 1/4
LOUISA*        FOG       70  68  94 NE3       30.08R VSB 1/4
BUMPASS*       CLOUDY    68  68 100 CALM      30.09R VSB 1/2
FARMVILLE*     MOCLDY    67  67 100 CALM      30.08R FOG
CREWE*         FAIR      67  66  95 CALM      30.08R
FORT PICKETT*  CLOUDY    69  68  98 N3        30.09R VSB 1/4
CHASE CITY*    CLOUDY    72  72 100 CALM      30.08R
CLARKSVILLE*   CLOUDY    70  70 100 CALM      30.08R
SOUTH HILL*    CLOUDY    69  69  98 CALM      30.14R
LAWRENCEVILLE* NOT AVBL
EMPORIA*         N/A     70  70 100 CALM      30.10R
$$

VAZ088>098-051100-
SOUTHEAST VIRGINIA

CITY           SKY/WX    TMP DP  RH WIND       PRES   REMARKS
NORFOLK        MOCLDY    75  71  87 CALM      30.07R
VIRGINIA BEACH MOCLDY    75  70  84 CALM      30.06R
NORFOLK NAVAL  MOCLDY    72  72 100 CALM      30.08R
WEST POINT*    CLOUDY    69  66  93 CALM      30.09R VSB<1/4
SALUDA*        FAIR      71  69  96 N6        30.06S
NEWPORT NEWS   PTCLDY    70  69  97 CALM      30.07R FOG
LANGLEY AFB    PTCLDY    71  70  97 NW2       30.05S FOG
FORT EUSTIS    PTCLDY    70 N/A N/A NE1       30.06R
WILLIAMSBURG*  PTCLDY    72  72 100 CALM      30.08R
HR EXEC AP*    FAIR      70  66  88 CALM      30.09R
FRANKLIN*      FOG       69  68  98 CALM      30.08R VSB 1/2
WAKEFIELD      PTCLDY    71  68  90 CALM      30.08R FOG
$$

VAZ020-022-025-037-045-051100-
WEST CENTRAL AND SOUTHWEST VIRGINIA

CITY           SKY/WX    TMP DP  RH WIND       PRES   REMARKS
STAUNTON*      CLOUDY    68  66  93 CALM      30.14R FOG
WAYNESBORO*    CLOUDY    63  63 100 CALM      30.13R
HOT SPRINGS VA MOCLDY    63  63 100 E3        30.21R
LYNCHBURG      CLOUDY    69  69 100 E3        30.11R
DANVILLE       CLOUDY    71  69  93 E3        30.08S FOG
SOUTH BOSTON*  CLOUDY    69  68  95 MISG      30.08S
MARTINSVILLE   CLOUDY    69  69 100 CALM      30.13R FOG
ROANOKE        CLOUDY    68  65  90 CALM      30.13R
BLACKSBURG     CLOUDY    64  64 100 CALM      30.18R FOG
DUBLIN*        CLOUDY    66  66 100 CALM      30.16R FOG
MARION*        FOG       65  64  96 CALM      30.19R VSB 3/4
HILLSVILLE*    CLOUDY    64  63  99 CALM      30.16R FOG
RICHLANDS*     CLOUDY    65  65 100 S3        30.16S
WISE*          RAIN      64  64 100 S3        30.15S
ABINGDON*      LGT RAIN  68  68 100 E5        30.13S
$$

MDZ021>025-VAZ099-100-051100-
SOUTHERN MARYLAND AND THE DELMARVA PENINSULA

CITY           SKY/WX    TMP DP  RH WIND       PRES   REMARKS
PATUXENT RIVER CLOUDY    71  70  96 N5        30.07R FOG
BAY BRIDGE APT   N/A     68  68 100 CALM      30.07R
LEONARDTOWN    CLOUDY    68  68 100 CALM      30.09R
DOVER          MOCLDY    64  64 100 N7        30.06R
GEORGETOWN     CLEAR     66  65  96 CALM      30.08R
EASTON         PTCLDY   N/A N/A N/A CALM        N/A  FOG
CAMBRIDGE        N/A     70  66  88 CALM      30.06S
SALISBURY      CLOUDY    69  69 100 N5        30.07R FOG
OCEAN CITY     CLOUDY    71  69  93 N5        30.07R
WALLOPS ISLAND MOCLDY    70  70 100 N3        30.08R FOG
ACCOMACK*      MOCLDY    68  68 100 CALM      30.07R
$$

NCZ012>017-030>032-051100-
NORTH CENTRAL AND EASTERN NORTH CAROLINA

CITY           SKY/WX    TMP DP  RH WIND       PRES   REMARKS
ROANOKE RAPIDS FAIR      70  68  94 CALM      30.08R FOG
RALEIGH        MOCLDY    72  68  87 SW6       30.09R
ELIZABETH CITY CLOUDY    73  70  90 SW7       30.07R
AHOSKIE*       PTCLDY   N/A N/A N/A CALM      30.08R FOG
EDENTON*       CLOUDY    74  71  89 SW3       30.07S
CURRITUCK*     CLOUDY    74  70  89 SW6       30.08R
KILL DEVIL HLS CLOUDY    77  71  82 W5        30.07R
MANTEO         CLOUDY    75  72  88 W3        30.08R
CAPE HATTERAS  CLOUDY    77  75  93 SW10      30.10R
TARBORO*         N/A     73  70  91 CALM      30.09R
GOLDSBORO      MOCLDY    76  71  85 SW7       30.07R
WASHINGTON     CLOUDY    76  73  91 SW6       30.08S
GREENVILLE     MOCLDY    73  73 100 SW6       30.10R
NEW BERN       CLOUDY    78  70  76 SW7       30.10R
WILMINGTON     CLOUDY    75  66  73 SW5       30.11R
$$

VAZ048-051100-
ELSEWHERE

CITY           SKY/WX    TMP DP  RH WIND       PRES   REMARKS
HARRISBURG PA  FOG       63  62  97 W6        30.10R VSB 1/16
BALTIMORE      MOCLDY    66  64  93 N3        30.08R FOG
ANNAPOLIS      PTCLDY    69  66  90 N5        30.07R FOG
ANDREWS AFB    PTCLDY    66  64  94 N5        30.08R FOG
PHILADELPHIA   MOCLDY    68  60  75 CALM      30.09R
HENDERSON NC   CLOUDY    70  67  92 CALM      30.09R
GREENSBORO     MOCLDY    71  69  93 SW6       30.09R
ROCKY MOUNT    PTCLDY    72  70  93 S6        30.09R
$$

VAZ100-051100-
MARINE

STATION/POSITION TIME  TEMP    WIND        PRES    WAVE   SWELL
                       AIR SEA DIR/SP/G            HT/PER HT/PER
                 (UTC) (F)     (DEG/KT/KT) (MB)    (FT/S) (FT/S)
BRANDYWINE LGT   0900   71 73   30/  5/  7 1018.2R
CAPE MAY NJ      0900   69 76   40/  1/  3 1017.6R
LEWES DE         0900   71 73   10/  6/  7 1017.7R
15NM E FENWICK I 0950   72 73              1017.9R   4/ 8
OCEAN-CITY-INLET 0900   72 74   30/  5/  7 1017.3R
WACHAPREAGUE VA  0900   70 79   CALM  /  1 1017.4R
THOMAS POINT MD  1000   71 77   10/  8/  9 1018.9R
GOOSES REEF MD   1000   74 77  110/  4/  6 1019.2R
COVE POINT MD    0900   72      60/  5/  6 1018.3R
SOLOMONS ISLAND  0900      79                N/A
BISHOPS HEAD MD  0900   72     350/  5/  7 1017.5R
PINEY POINT MD   0906           30/  5/  6   N/A
CAMBRIDGE MD     0900   71 79   80/  4/  5 1017.6R
LEWISETTA VA     0900   72 79   20/  3/  6 1017.5R
RAPPAHANNOCK LGT 0900          340/  5/  6 1017.7R
STINGRAY PT      1000   74 80   10/  6/  8 1018.2R   0
YORK RVR RNG VA  0900   74      10/  6/  8 1016.8R
YORKTOWN VA      0900   73 79  340/  3/  5 1017.2R
JAMESTOWN VA     1000   72 82   40/  2/  2   N/A
DOMINION TERM VA 0900   76     300/  3/  4 1017.4R
KIPTOPEKE VA     0900      82   40/  2/  4   N/A
CHES BAY BRIDGE  0900   76 77  270/  2/  4 1017.2R
CAPE HENRY VA    0900   74     200/  4/  5   N/A
CHESAPEAKE LGHT  0900   75     250/  4/  4 1018.3R
WILLOUBY STN VA  0906   76     350/  4/  5 1018.6R
CAPE HENRY BUOY  0928      78                N/A     2/ 9
1ST LANDING BUOY 1000      76              1017.8R   2/ 4
CAPE CHARLES BUO 0926      77                N/A     2/10   2/10
OFFSHORE WE BUOY 0911      77                N/A     3/ 8   3/ 8
64NM E OF VA BCH 0950   76 76  300/  4/  6 1017.6R   4/ 7   3/ 7
DUCK PIER NC     0900   76 72  270/ 11/ 12   N/A
44100 DUCK FRF   0924      78                N/A     3/ 7
44056 DUCK FRF   0911      77                N/A     2/ 6
OREGON INLET NC  0900   78 78  260/  8/ 12 1018.0R
HATTERAS NC      0900   77 79  220/  8/ 12 1018.2R
DIAMOND SHLS NC  0950   80 81  230/ 19/ 21 1018.9R   5/ 6   2/15
CAPE LOOKOUT NC  1000   79     240/ 10/ 13 1019.4R
$$


USA.gov is the U.S. government's official web portal to all federal, state and local government web resources and services.